Theta_e
324 324 321 318 316 318 321 322 321 320 319 320 324 326 328 329 328 326 325 322 323 324 323 323 324 325 324 325 325 325 326 326 326 327 327 328 330 329 327 325 325 325
326 325 323 320 319 319 321 322 319 318 318 320 323 327 330 330 329 326 323 322 322 322 322 321 322 325 327 327 328 327 327 327 326 326 327 329 330 328 326 324 324 324
326 324 322 321 320 320 322 322 321 321 322 324 328 331 331 330 329 326 324 324 323 322 323 321 323 328 330 329 330 329 328 328 327 326 327 329 329 327 325 324 323 323
325 324 323 320 319 322 327 327 325 323 323 326 330 331 330 329 326 324 322 322 322 323 322 322 326 330 332 331 331 331 330 329 328 327 326 327 326 326 325 324 324 324
324 324 323 321 319 323 328 327 323 322 324 326 328 328 328 327 324 321 322 321 320 321 322 322 325 329 332 332 332 331 331 330 329 328 327 327 326 326 326 326 326 325
324 322 321 320 320 321 323 322 321 323 326 327 328 328 328 327 324 324 325 324 322 324 325 324 324 326 329 330 330 330 330 330 330 329 327 327 328 328 328 328 327 325
323 321 318 318 318 319 319 320 322 326 328 328 329 329 328 328 327 328 328 327 327 327 327 327 327 326 327 328 328 329 330 330 331 330 328 328 330 330 330 329 328 326
323 321 318 318 317 319 319 321 325 329 330 330 330 329 329 329 330 330 329 329 329 329 328 328 328 328 328 328 328 328 329 329 329 330 329 329 330 330 330 330 329 327
323 321 318 318 319 320 322 323 327 330 332 332 331 329 329 329 330 330 330 330 330 329 328 329 329 329 328 328 328 329 329 328 327 328 328 328 328 328 329 330 330 329
324 321 319 318 320 323 325 327 329 331 332 331 330 330 330 330 331 330 330 330 330 329 329 329 329 329 328 328 329 329 328 328 327 327 326 326 324 324 325 328 330 330
325 324 321 320 322 325 329 331 332 333 333 331 330 330 330 331 330 330 330 330 329 329 329 329 330 329 329 329 329 328 328 328 328 327 326 324 324 323 324 327 330 330
328 327 324 322 324 329 332 333 334 334 333 331 330 330 330 330 330 330 329 328 328 329 329 329 330 329 329 328 328 328 328 328 328 327 326 326 326 325 325 326 328 329
329 327 326 327 328 330 332 332 333 332 332 330 330 330 331 330 329 327 325 326 328 330 329 328 328 327 328 328 328 329 329 329 329 328 328 328 326 323 322 322 323 324
329 328 330 331 332 333 331 330 330 329 329 329 328 329 328 327 326 324 324 326 328 328 327 327 327 327 328 328 328 329 329 329 329 328 328 327 324 321 321 321 321 321
330 333 334 333 334 334 331 329 330 329 327 326 324 324 325 324 324 324 323 325 326 327 328 328 327 327 327 327 327 328 327 328 328 328 327 326 323 322 322 321 321 321
331 335 336 335 336 335 331 329 330 328 325 323 321 323 324 325 326 327 326 326 327 328 329 328 327 326 326 327 327 327 326 326 326 326 327 326 325 325 324 323 322 321
329 334 336 336 337 335 330 328 328 326 323 322 322 323 325 328 329 329 329 328 328 329 328 327 326 326 326 326 326 326 326 325 325 325 326 326 326 325 326 325 322 322
327 332 335 335 335 333 329 328 327 325 324 324 324 326 328 330 331 332 331 329 329 328 328 327 327 326 326 326 325 325 324 324 325 325 326 325 325 325 326 325 323 322
327 331 333 331 329 328 327 327 327 326 325 325 327 329 331 332 333 334 332 330 329 328 328 327 327 326 325 325 325 325 324 325 325 326 326 325 325 325 325 325 324 322
329 331 329 326 325 326 326 326 325 325 326 327 330 331 333 334 334 334 333 330 328 328 328 328 327 327 326 325 326 327 326 326 325 325 325 324 323 324 324 324 324 324
335 331 327 326 327 327 327 326 326 327 327 329 331 333 333 334 335 335 334 331 329 328 328 328 327 327 327 327 328 328 328 327 326 326 325 323 323 323 323 323 324 324
337 330 327 328 328 328 328 328 329 329 329 331 333 334 334 334 334 334 334 332 329 328 328 328 328 328 327 327 328 328 328 327 327 327 326 323 321 322 323 324 324 323
336 330 327 328 328 329 330 330 330 331 331 332 333 334 333 333 332 332 332 331 329 328 328 328 328 327 327 326 327 327 327 327 327 327 326 323 321 321 322 323 324 323
338 333 329 328 328 329 331 331 332 332 332 333 333 333 332 331 330 330 330 330 330 329 329 328 327 327 326 326 326 326 326 327 327 327 325 322 321 321 322 322 323 323
339 337 332 329 331 332 332 332 332 332 333 332 331 331 331 330 330 330 331 330 329 328 327 327 327 327 326 325 325 325 326 327 326 325 322 321 321 321 321 321 322 322
339 338 335 334 335 335 334 333 333 333 333 332 331 331 331 330 330 330 331 330 327 326 326 326 327 327 325 323 324 324 325 326 325 322 321 321 320 320 320 320 321 321
Wind_Speed
6 5 5 4 4 5 6 5 5 5 5 6 6 6 6 6 7 7 7 6 7 8 8 8 9 10 10 10 10 10 10 8 7 7 8 8 7 7 8 9 10 11
7 6 5 3 3 5 6 6 5 4 4 5 5 4 5 5 6 7 6 6 7 8 9 9 9 9 9 10 12 12 12 10 9 8 8 8 7 7 8 9 11 12
8 7 4 3 4 5 5 5 4 4 5 4 2 3 5 6 8 8 8 8 8 9 9 10 9 9 10 12 13 14 14 13 12 10 9 8 9 9 9 10 12 12
9 7 5 4 5 5 4 5 7 7 5 3 3 6 7 8 9 8 8 8 9 9 10 10 9 9 10 12 13 14 14 13 12 11 10 10 10 11 11 12 13 13
9 7 6 5 6 6 7 9 9 6 2 1 3 5 7 7 7 6 8 10 9 9 10 10 10 10 11 12 13 14 14 13 12 11 11 11 11 12 12 13 13 13
9 7 6 7 7 8 8 9 7 3 1 0 2 3 4 5 5 7 11 11 9 11 13 12 10 10 11 13 14 14 14 14 12 12 12 12 12 12 13 14 15 15
10 8 7 8 8 8 9 8 6 4 2 1 3 4 5 6 6 9 13 13 12 14 16 14 13 12 12 13 13 14 15 14 14 14 14 13 13 14 14 16 17 17
10 9 7 8 8 9 8 7 7 6 3 5 5 6 8 9 9 11 13 13 13 15 16 16 16 15 15 16 15 15 15 15 16 16 16 15 15 16 16 17 18 18
11 10 8 8 9 10 8 6 6 5 4 7 8 9 10 10 10 12 12 12 14 16 16 16 17 18 18 18 17 17 16 16 15 15 15 16 17 17 17 17 19 19
11 10 7 7 9 10 7 6 5 4 5 8 9 9 10 10 10 11 12 13 15 16 16 16 17 17 17 17 17 18 18 16 15 15 15 17 17 17 18 18 19 20
12 10 6 7 10 10 9 8 6 5 6 8 8 8 9 11 13 14 15 16 15 14 14 13 13 14 16 17 18 19 18 16 16 16 16 16 16 15 16 17 18 20
12 10 7 8 11 12 11 11 9 9 10 11 11 12 12 14 16 17 17 16 13 13 14 14 14 15 17 19 18 17 16 16 16 16 16 15 15 15 16 17 18 20
12 9 8 9 12 12 11 11 11 12 14 14 14 15 16 18 18 17 16 14 13 16 17 17 16 16 16 17 16 16 16 16 15 15 15 15 15 15 15 16 17 19
11 9 10 10 12 12 11 10 11 12 14 14 15 16 17 18 17 15 14 13 14 16 15 14 15 15 15 16 17 17 17 17 15 15 15 15 14 14 15 16 17 18
10 11 12 12 13 13 12 13 13 14 14 14 13 13 14 13 12 12 12 12 13 13 12 14 17 17 16 15 15 16 18 18 17 16 16 15 15 15 16 16 17 18
11 14 16 16 16 16 14 15 15 15 13 12 11 11 11 11 11 11 12 12 12 12 13 17 18 17 15 15 16 17 19 20 20 19 17 17 17 18 18 18 19 19
13 17 19 19 19 19 17 16 15 13 12 11 11 12 12 12 13 12 13 13 13 14 16 18 18 18 17 17 18 19 19 20 20 20 19 19 20 19 19 19 20 20
15 20 23 23 23 22 19 17 14 12 12 12 12 12 13 14 14 14 14 14 15 16 17 18 19 19 19 20 20 19 18 19 20 20 21 22 22 21 20 20 19 19
19 24 26 25 24 22 19 16 15 13 13 13 13 13 14 15 15 16 15 15 16 17 19 20 20 20 21 22 21 18 17 19 20 21 22 23 24 23 22 20 18 18
23 25 25 23 21 19 17 15 15 14 14 14 14 14 15 16 17 17 16 15 17 18 20 21 21 21 23 23 22 19 19 20 21 22 23 23 24 24 23 22 20 19
27 25 23 21 19 18 16 15 15 15 15 15 15 16 16 17 17 18 18 17 17 18 20 22 22 21 22 23 23 22 20 21 22 22 23 23 24 24 23 21 20 19
29 25 23 22 20 18 18 17 17 17 16 15 17 17 17 17 18 20 20 18 17 18 20 20 20 20 21 21 21 20 20 21 23 22 23 24 24 22 21 19 18 18
29 25 23 22 21 20 20 20 20 19 18 17 17 18 17 17 17 18 18 17 16 17 18 19 22 24 25 23 22 20 19 20 21 21 22 24 25 23 21 19 19 19
30 25 23 22 22 22 22 22 22 22 20 18 17 17 17 16 16 15 14 15 16 17 20 22 25 27 27 26 26 24 19 18 20 21 23 25 24 21 20 20 19 20
31 27 25 24 24 25 24 24 24 23 20 17 14 15 16 15 14 13 13 14 17 19 22 24 26 27 26 26 26 23 19 19 20 21 22 23 21 19 19 19 19 20
32 29 27 26 27 28 27 26 25 23 19 16 14 15 15 15 14 14 16 17 19 21 23 24 25 26 24 22 22 22 20 19 19 19 20 20 19 18 19 19 18 18
Wind_Direction
240 243 231 218 215 215 220 238 260 268 269 263 255 253 254 263 273 274 280 299 313 314 311 311 313 316 320 327 332 334 336 337 332 322 318 321 317 313 322 329 331 332
240 246 237 225 229 220 213 232 258 272 271 261 248 250 270 280 276 276 289 305 308 306 307 310 316 323 325 329 334 333 331 331 332 330 323 316 311 311 319 326 330 332
233 242 242 235 233 221 216 240 268 272 263 252 249 265 270 275 280 287 297 302 302 302 305 309 315 324 324 324 326 324 322 321 322 324 319 311 307 307 311 317 323 328
224 232 240 237 234 231 236 259 268 269 272 274 280 277 273 281 291 299 308 309 309 306 304 303 306 310 311 311 310 310 311 312 313 314 312 308 304 301 303 308 315 321
216 222 229 235 239 234 235 250 258 264 286 304 294 287 284 294 306 322 328 323 319 322 319 309 299 295 295 296 298 300 304 307 307 308 308 306 304 303 304 306 308 311
209 211 219 228 232 231 234 246 250 233 140 130 316 321 317 315 306 313 327 328 324 330 334 328 316 303 292 289 293 295 297 301 304 303 301 298 298 302 303 302 301 302
206 207 211 218 223 228 236 240 225 185 154 253 281 305 315 315 301 307 324 329 323 326 332 334 330 323 311 305 305 302 297 297 300 299 297 295 293 295 296 296 298 299
207 210 211 216 222 225 230 226 204 185 216 265 272 286 297 302 303 306 314 317 316 319 323 325 324 324 322 318 317 313 306 301 299 296 295 295 294 293 291 292 295 297
209 212 209 212 220 223 222 215 201 198 240 268 269 274 282 287 289 292 298 304 307 309 314 316 315 317 318 315 313 313 311 308 302 295 292 293 295 294 291 290 292 296
212 216 213 212 218 222 223 217 213 231 264 271 267 262 264 264 267 275 284 289 292 298 307 308 306 308 310 308 306 306 307 306 303 298 294 293 294 293 291 290 291 294
212 218 223 224 220 221 225 228 238 257 260 262 257 247 246 252 261 273 280 282 286 293 300 303 302 300 299 299 300 300 302 303 301 297 293 292 295 296 294 291 291 293
213 222 232 225 221 223 227 231 240 246 244 247 253 253 255 263 271 278 280 280 282 285 288 290 288 286 289 294 296 298 302 303 299 295 291 292 296 299 298 294 292 292
217 230 236 221 216 218 220 223 229 233 233 239 250 257 264 270 275 277 277 275 275 278 282 283 284 286 290 294 297 300 303 301 299 296 293 295 300 304 306 304 301 298
227 237 240 231 223 220 221 227 231 234 239 246 253 259 262 266 271 274 274 272 273 279 286 291 295 295 294 294 297 300 301 300 298 295 294 297 301 305 312 316 315 311
233 238 241 238 231 226 228 232 236 242 251 257 261 260 260 263 272 280 282 282 285 288 291 296 298 296 294 297 302 303 304 303 298 294 293 294 295 299 307 315 317 315
225 232 237 234 230 232 236 236 238 246 256 265 270 269 271 279 288 293 294 296 296 292 288 292 299 303 303 307 309 307 306 304 299 294 290 288 290 296 303 308 312 314
219 227 230 229 228 232 237 238 239 247 257 264 270 274 280 289 294 298 300 299 294 289 288 294 301 306 307 309 311 309 306 303 300 296 290 287 290 294 297 302 310 314
221 226 229 227 228 232 236 238 240 247 255 261 267 273 280 285 290 295 299 296 289 288 292 296 300 304 307 308 309 309 307 305 303 299 294 291 291 290 291 296 307 313
224 226 229 229 230 233 235 237 242 248 255 261 267 272 276 279 283 288 291 289 286 288 294 299 302 305 307 307 307 308 309 308 306 303 298 294 291 288 287 292 301 308
222 225 230 230 231 233 235 240 246 252 258 263 267 270 273 275 277 279 281 284 285 287 292 297 301 305 309 309 308 309 307 306 306 305 302 299 294 289 288 289 292 301
223 230 232 230 232 234 237 243 248 253 259 265 266 268 272 276 276 275 277 283 286 286 289 294 299 306 311 309 306 306 304 303 305 307 307 305 300 293 289 286 287 296
227 234 232 231 234 236 240 245 248 252 257 263 265 266 271 276 279 280 282 287 291 291 292 294 296 300 301 298 295 297 298 297 297 300 305 308 305 298 292 287 289 297
231 234 232 232 235 237 242 246 247 247 250 256 261 265 271 276 281 284 286 287 291 292 290 288 289 292 294 292 289 290 291 290 288 290 301 307 305 298 293 290 293 298
234 236 236 237 239 239 241 245 245 243 245 251 258 264 269 274 283 291 291 286 284 285 286 287 289 294 298 299 296 292 284 279 281 289 301 306 303 297 293 291 293 297
237 238 240 243 241 238 238 241 242 240 242 249 255 260 266 273 285 291 284 277 280 286 291 292 294 300 305 306 303 295 281 277 286 297 303 302 300 299 297 295 295 297
237 238 241 242 237 236 238 238 237 236 240 247 248 249 257 271 280 276 271 274 284 292 295 296 297 301 306 309 306 295 283 282 292 299 299 297 298 301 301 301 300 300